Location: Abraham Lincoln Continuation High School
(33.9711°N, 117.3662°W)
Time: 04:40:53
(UTC+00:00)

SL-16 R/B - Pass Details

Date: 21 September 2020
Orbit: 842 x 846 km, 71.0° (Epoch: 25 October)

Event Time Altitude Azimuth Distance (km) Brightness Sun altitude
Exits shadow 10:47:45 31° 111° (ESE) 1,450 3.6 -34.6°
Maximum altitude 10:48:10 31° 103° (ESE) 1,441 3.7 -34.6°
Drops below altitude 10° 10:53:03 10° 43° (NE) 2,466 5.4 -33.7°
Sets 10:55:45 0° 33° (NNE) 3,405 6.1 -33.2°
